#timestamp,LO_Frequency,Hit,StdDev 
1582732815.1,286047026.2,Y
1582732835.9,286047023.8,P
1582732855.7,286047024.6,N
1582732875.5,286047027.1,N
1582732895.4,286047027.2,N
1582732915.2,286047027.0,N
1582732935.1,286047025.5,N
1582732936.0,286047025.5,N
1582732955.8,286047025.1,Y
1582732975.6,286046996.5,P
1582732995.5,286047001.5,N
1582733015.3,286047008.6,N
1582733035.1,286047008.4,N
1582733055.9,286047013.6,N
1582733075.7,286047011.4,N
1582733095.6,286047013.2,N
1582733115.4,286047004.9,N
1582733135.2,286047005.5,N
1582733155.1,286046993.6,N
1582733156.0,286046993.6,N
1582733175.8,286046998.9,N
1582733195.6,286047003.6,N
1582733215.5,286047007.8,N
1582733235.3,286047003.0,N
1582733255.2,286046995.0,N
1582733275.9,286046988.3,N
1582733295.7,286046995.9,N
1582733315.6,286046991.1,N
1582733335.4,286046986.2,N
1582733355.2,286046983.1,N
1582733375.1,286046985.0,N
1582733376.0,286046985.0,N
1582733395.8,286046988.2,N
1582733415.7,286046995.9,N
1582733435.5,286047008.4,N
1582733455.3,286047010.7,N
1582733475.2,286047009.3,N
1582733495.0,286047012.3,N
1582733495.9,286047012.3,N
1582733515.7,286046998.8,N
1582733535.6,286046992.8,N
1582733555.4,286046991.3,N
1582733575.3,286046991.7,N
1582733595.1,286046997.0,N
1582733596.0,286046997.0,N
1582733615.8,286047005.3,N
1582733635.7,286047002.6,N
1582733655.5,286046992.6,N
1582733675.3,286046989.9,N
1582733695.2,286046987.5,N
1582733715.0,286046990.0,N
1582733715.9,286046990.0,N
1582733735.8,286046999.2,N
1582733755.6,286047010.0,N
1582733775.4,286047013.9,N
1582733795.3,286047007.8,N
1582733815.1,286047002.0,N
1582733835.8,286047010.5,N
1582733855.7,286047017.2,N
1582733875.5,286047008.3,N
1582733895.4,286047003.8,N
1582733915.2,286047012.3,N
1582733935.0,286047013.8,N
1582733935.9,286047013.8,N
1582733955.8,286047013.6,N
1582733975.6,286047011.0,N
1582733995.4,286047009.5,N
1582734015.3,286047006.4,N
1582734035.1,286047008.4,N
1582734055.9,286047010.2,N
1582734075.7,286047012.0,N
1582734095.6,286047019.0,N
1582734115.4,286047013.5,N
1582734135.2,286047008.0,N
1582734155.1,286047005.1,N
1582734156.0,286047005.1,N
1582734175.8,286046999.5,N
1582734195.7,286046999.2,N
1582734215.5,286046987.3,N
1582734235.3,286046989.1,N
1582734255.2,286046991.3,N
1582734275.9,286046988.3,N
1582734295.7,286046991.2,N
1582734315.6,286046991.6,N
1582734335.4,286046994.1,N
1582734355.3,286046987.3,N
1582734375.1,286046997.4,N
1582734376.0,286046997.4,N
1582734395.8,286046987.1,N
1582734415.7,286046985.5,N
1582734435.5,286046982.9,N
1582734455.3,286046985.4,N
1582734475.2,286046987.5,N
1582734495.0,286046988.6,N
1582734495.9,286046988.6,N
1582734515.8,286046980.6,N
1582734535.6,286046978.2,N
1582734555.5,286046985.1,N
1582734575.3,286046982.6,N
1582734595.1,286046977.9,N
1582734615.9,286046975.8,N
1582734635.7,286046969.7,N
1582734655.5,286046972.2,N
1582734675.4,286046978.1,N
1582734695.2,286046992.8,N
1582734715.1,286046999.4,N
1582734716.0,286046999.4,N
1582734735.8,286046995.5,N
1582734755.6,286046989.1,N
1582734775.5,286046988.0,N
1582734795.3,286046984.5,N
1582734815.2,286046982.6,N
1582734835.9,286046991.4,N
1582734855.7,286046996.8,N
1582734875.6,286047006.7,N
1582734895.4,286047005.7,N
1582734915.3,286046992.0,N
1582734935.1,286046995.3,N
1582734936.0,286046995.3,N
1582734955.8,286046998.1,N
1582734975.7,286047005.4,N
1582734995.5,286047010.4,N
1582735015.3,286047009.1,N
1582735035.2,286047014.2,N
1582735055.0,286047004.6,N
1582735055.9,286047004.6,N
1582735075.8,286047001.4,N
1582735095.6,286047004.8,N
1582735115.4,286047006.2,N
1582735135.3,286047010.6,N
1582735155.1,286047008.5,N
1582735175.9,286047003.3,N
1582735195.7,286047004.1,N
1582735215.5,286047008.6,N
1582735235.4,286047009.8,N
1582735255.2,286047006.5,N
1582735275.1,286047004.2,N
1582735276.0,286047004.2,N
1582735295.8,286046997.1,N
1582735315.6,286047000.4,N
1582735335.5,286047007.7,N
1582735355.3,286047004.6,N
1582735375.1,286046996.6,N
1582735395.9,286047002.4,N
1582735415.7,286047000.5,N
1582735435.6,286046996.5,N
1582735455.4,286047005.0,N
1582735475.2,286047002.9,N
1582735495.1,286047004.3,N
1582735496.0,286047004.3,N
1582735515.8,286047002.9,N
1582735535.6,286046997.2,N
1582735555.5,286046990.4,N
1582735575.3,286047004.1,N
1582735595.2,286047006.2,N
1582735615.0,286046997.2,N
1582735615.9,286046997.2,N
1582735635.7,286046991.0,N
1582735655.6,286047000.1,N
1582735675.4,286046998.6,N
1582735695.3,286046998.6,N
1582735715.1,286046998.5,N
1582735735.8,286047005.6,N
1582735755.7,286046998.6,N
1582735775.5,286046998.0,N
1582735795.4,286046994.1,N
1582735815.2,286046994.5,N
1582735835.0,286046988.6,N
1582735835.9,286046988.6,N
1582735855.8,286046999.9,N
1582735875.6,286047003.5,N
1582735895.4,286047006.3,N
1582735915.3,286047009.6,N
1582735935.1,286047009.4,N
1582735955.9,286047017.0,Y
1582735975.7,286047020.9,P
1582735995.5,286047026.0,N
1582736015.4,286047018.7,N
1582736035.2,286047018.8,N
1582736055.1,286047019.4,N
1582736056.0,286047019.4,N
1582736075.8,286047024.9,Y
1582736095.7,286047012.3,P
1582736115.5,286047015.2,P
1582736135.3,286047009.3,P
1582736155.2,286046994.9,N
1582736175.0,286046994.7,N
1582736175.9,286046994.7,N
1582736195.7,286046987.2,N
1582736215.6,286046988.2,N
1582736235.4,286046984.5,N
1582736255.3,286046988.4,N
1582736275.1,286046994.5,N
1582736276.0,286046994.5,N
1582736295.8,286046992.1,N
1582736315.7,286046991.3,N
1582736335.5,286046988.3,N
1582736355.3,286046975.0,N
1582736375.2,286046974.2,N
1582736395.0,286046973.0,N
1582736395.9,286046973.0,N
